{"data":{"norad_id":64359,"intl_designator":"2025-126R","name":"STARLINK-34291","alt_names":[],"object_type":"PAYLOAD","status":"ACTIVE","operator":null,"country":"US","launch_date":"2025-06-13","launch_site_code":"AFWTR","launch_vehicle":null,"mission":null,"orbit_class":"UNKNOWN","rcs_meters":null,"size_class":null,"mass_kg":null,"dimensions":null,"purposes":["comms"],"wikipedia_slug":null,"has_3d_model":false,"image_url":null,"decayed_at":null,"tle_current":{"epoch":"2026-09-20T09:49:02.908416Z","epoch_age_seconds":142091,"freshness":"FRESH","line1":"1 64359U 25126R   26263.40906144  .00009733  00000+0  34256-3 0  9994","line2":"2 64359  70.0011 261.3135 0003024 270.1266  89.9562 15.29582862 69903","mean_motion":15.29582862,"eccentricity":0.0003024,"inclination_deg":70.0011,"raan_deg":261.3135,"arg_perigee_deg":270.1266,"mean_anomaly_deg":89.9562,"bstar":0.00034256,"rev_number":6990,"period_min":94.143314218174,"perigee_km":474.98534069182,"apogee_km":479.13136284056,"semimajor_km":6855.1953517662,"source":"CELESTRAK","updated_at":"2026-09-21T09:00:35.318978Z"}}}